BAW76 LGAV-LGKR

Flight info

Callsign BAW76
Flight time 0h 54m
Altitude 32000
Route KOR1N KOR UL53 PARNA PARNA1P
Aircraft A319/M-SDE3FGIJ1KRWXY/LB1

Departure

Time 2026-05-05 10:04
Airport Athens Eleftherios Venizelos International Airport (LGAV)

Arrival

Time 2026-05-05 10:59
Airport Corfu Ioannis Kapodistrias International Airport (LGKR)
Time Latitude Longitude Altitude Speed Heading
2026-05-05 09:48 37.93329 23.94577 301 ft 0 kts 307°
2026-05-05 09:54 37.93319 23.94593 301 ft 4 kts 307°
2026-05-05 09:54 37.93306 23.94615 301 ft 4 kts 306°
2026-05-05 09:54 37.93294 23.94644 303 ft 4 kts 275°
2026-05-05 09:55 37.93299 23.94671 302 ft 3 kts 220°
2026-05-05 09:55 37.93301 23.94675 301 ft 0 kts 217°
2026-05-05 09:58 37.93301 23.94674 301 ft 0 kts 217°
2026-05-05 09:58 37.93296 23.94670 302 ft 2 kts 216°
2026-05-05 09:58 37.93288 23.94662 301 ft 0 kts 216°
2026-05-05 09:59 37.93280 23.94655 301 ft 3 kts 216°
2026-05-05 09:59 37.93247 23.94624 303 ft 9 kts 217°
2026-05-05 09:59 37.93181 23.94594 302 ft 11 kts 180°
2026-05-05 09:59 37.93094 23.94590 301 ft 14 kts 188°
2026-05-05 10:00 37.93009 23.94526 302 ft 15 kts 218°
2026-05-05 10:00 37.92915 23.94442 302 ft 17 kts 215°
2026-05-05 10:00 37.92816 23.94345 301 ft 19 kts 216°
2026-05-05 10:00 37.92706 23.94238 303 ft 21 kts 218°
2026-05-05 10:01 37.92592 23.94131 302 ft 20 kts 216°
2026-05-05 10:01 37.92490 23.94036 304 ft 0 kts 216°
2026-05-05 10:01 37.92488 23.94036 302 ft 1 kts 205°
2026-05-05 10:01 37.92485 23.94043 302 ft 1 kts 125°
2026-05-05 10:02 37.92475 23.94084 305 ft 9 kts 114°
2026-05-05 10:02 37.92431 23.94161 304 ft 12 kts 127°
2026-05-05 10:02 37.92412 23.94260 306 ft 11 kts 86°
2026-05-05 10:02 37.92416 23.94361 310 ft 12 kts 86°
2026-05-05 10:03 37.92449 23.94419 309 ft 0 kts 36°
2026-05-05 10:03 37.92556 23.94521 307 ft 51 kts 37°
2026-05-05 10:03 37.93023 23.94963 294 ft 114 kts 37°
2026-05-05 10:04 37.93802 23.95705 302 ft 162 kts 38°
2026-05-05 10:04 37.94692 23.96540 911 ft 158 kts 39°
2026-05-05 10:04 37.95581 23.97354 1508 ft 159 kts 38°
2026-05-05 10:04 37.96518 23.98236 1862 ft 179 kts 40°
2026-05-05 10:05 37.97572 23.99265 2187 ft 204 kts 39°
2026-05-05 10:05 37.98769 24.00439 2669 ft 230 kts 38°
2026-05-05 10:05 38.00079 24.01713 3539 ft 240 kts 37°
2026-05-05 10:05 38.01414 24.03004 4565 ft 243 kts 37°
2026-05-05 10:06 38.02766 24.04304 5561 ft 245 kts 36°
2026-05-05 10:06 38.04130 24.05613 6551 ft 247 kts 36°
2026-05-05 10:06 38.05503 24.06931 7519 ft 248 kts 36°
2026-05-05 10:06 38.06887 24.08260 8445 ft 251 kts 34°
2026-05-05 10:07 38.08267 24.09645 9287 ft 259 kts 40°
2026-05-05 10:07 38.09195 24.11697 9840 ft 283 kts 73°
2026-05-05 10:07 38.09161 24.14237 10589 ft 299 kts 103°
2026-05-05 10:07 38.08099 24.16540 11310 ft 314 kts 133°
2026-05-05 10:08 38.06178 24.18055 11578 ft 341 kts 162°
2026-05-05 10:08 38.03770 24.18252 11940 ft 356 kts 192°
2026-05-05 10:08 38.01520 24.16988 12575 ft 358 kts 220°
2026-05-05 10:08 37.99955 24.14587 13261 ft 354 kts 246°
2026-05-05 10:09 37.99105 24.11670 13969 ft 353 kts 258°
2026-05-05 10:09 37.98480 24.08655 14673 ft 355 kts 259°
2026-05-05 10:09 37.97857 24.05618 15358 ft 358 kts 259°
2026-05-05 10:09 37.97208 24.02561 16022 ft 362 kts 256°
2026-05-05 10:10 37.96330 23.99556 16687 ft 366 kts 250°
2026-05-05 10:10 37.95257 23.96607 17356 ft 370 kts 247°
2026-05-05 10:10 37.94087 23.93691 17987 ft 373 kts 246°
2026-05-05 10:10 37.92886 23.90766 18598 ft 376 kts 246°
2026-05-05 10:11 37.91703 23.87849 19204 ft 379 kts 246°
2026-05-05 10:11 37.90522 23.84855 19802 ft 381 kts 247°
2026-05-05 10:11 37.89554 23.81741 20371 ft 380 kts 257°
2026-05-05 10:11 37.89100 23.78447 20930 ft 380 kts 269°
2026-05-05 10:12 37.89139 23.75103 21479 ft 381 kts 276°
2026-05-05 10:12 37.89323 23.71746 22017 ft 384 kts 276°
2026-05-05 10:12 37.89499 23.68364 22515 ft 387 kts 276°
2026-05-05 10:12 37.89672 23.64950 23010 ft 390 kts 276°
2026-05-05 10:13 37.89843 23.61511 23486 ft 393 kts 275°
2026-05-05 10:13 37.90017 23.58049 23934 ft 396 kts 275°
2026-05-05 10:13 37.90192 23.54561 24380 ft 398 kts 275°
2026-05-05 10:13 37.90364 23.51052 24820 ft 401 kts 276°
2026-05-05 10:14 37.90532 23.47519 25278 ft 403 kts 276°
2026-05-05 10:14 37.90699 23.43971 25736 ft 405 kts 276°
2026-05-05 10:14 37.90867 23.40405 26175 ft 406 kts 276°
2026-05-05 10:14 37.91038 23.36830 26606 ft 408 kts 276°
2026-05-05 10:15 37.91211 23.33240 27013 ft 409 kts 277°
2026-05-05 10:15 37.91387 23.29636 27420 ft 411 kts 277°
2026-05-05 10:15 37.91562 23.26015 27819 ft 413 kts 277°
2026-05-05 10:15 37.91734 23.22376 28219 ft 414 kts 277°
2026-05-05 10:16 37.91904 23.18728 28601 ft 416 kts 277°
2026-05-05 10:16 37.92070 23.15064 28965 ft 418 kts 277°
2026-05-05 10:16 37.92234 23.11388 29338 ft 419 kts 277°
2026-05-05 10:16 37.92402 23.07696 29682 ft 420 kts 277°
2026-05-05 10:17 37.92572 23.03994 30011 ft 422 kts 278°
2026-05-05 10:17 37.92742 23.00278 30324 ft 424 kts 278°
2026-05-05 10:17 37.93091 22.96586 30612 ft 421 kts 286°
2026-05-05 10:17 37.93916 22.93049 30927 ft 418 kts 295°
2026-05-05 10:18 37.95197 22.89765 31230 ft 416 kts 304°
2026-05-05 10:18 37.96825 22.86754 31607 ft 414 kts 307°
2026-05-05 10:18 37.98478 22.83779 31981 ft 413 kts 307°
2026-05-05 10:18 38.00116 22.80808 32082 ft 408 kts 307°
2026-05-05 10:19 38.01705 22.77897 32102 ft 396 kts 307°
2026-05-05 10:19 38.03261 22.75035 32102 ft 393 kts 307°
2026-05-05 10:19 38.06350 22.69392 32103 ft 391 kts 307°
2026-05-05 10:20 38.09462 22.63729 32112 ft 391 kts 307°
2026-05-05 10:20 38.12568 22.58053 32120 ft 391 kts 307°
2026-05-05 10:21 38.15670 22.52382 32118 ft 390 kts 307°
2026-05-05 10:21 38.18756 22.46714 32107 ft 390 kts 307°
2026-05-05 10:22 38.21837 22.41052 32112 ft 389 kts 307°
2026-05-05 10:22 38.24917 22.35396 32104 ft 389 kts 307°
2026-05-05 10:23 38.27987 22.29740 32109 ft 389 kts 307°
2026-05-05 10:23 38.30554 22.24989 32113 ft 389 kts 307°
2026-05-05 10:24 38.33624 22.19305 32118 ft 389 kts 307°
2026-05-05 10:24 38.36672 22.13652 32125 ft 389 kts 307°
2026-05-05 10:25 38.39733 22.07965 32118 ft 389 kts 307°
2026-05-05 10:25 38.42791 22.02271 32119 ft 389 kts 307°
2026-05-05 10:26 38.45847 21.96572 32125 ft 389 kts 307°
2026-05-05 10:26 38.48895 21.90875 32132 ft 389 kts 306°
2026-05-05 10:27 38.51950 21.85170 32132 ft 389 kts 307°
2026-05-05 10:27 38.54995 21.79474 32142 ft 388 kts 306°
2026-05-05 10:28 38.58038 21.73764 32143 ft 388 kts 306°
2026-05-05 10:28 38.61072 21.68058 32139 ft 388 kts 306°
2026-05-05 10:29 38.64103 21.62349 32142 ft 388 kts 306°
2026-05-05 10:29 38.67127 21.56640 32140 ft 388 kts 306°
2026-05-05 10:30 38.70151 21.50920 32135 ft 388 kts 306°
2026-05-05 10:30 38.73170 21.45196 32137 ft 388 kts 306°
2026-05-05 10:31 38.76190 21.39477 32142 ft 388 kts 306°
2026-05-05 10:31 38.79208 21.33752 32148 ft 388 kts 306°
2026-05-05 10:32 38.82220 21.28015 32144 ft 388 kts 306°
2026-05-05 10:32 38.85229 21.22273 32148 ft 388 kts 306°
2026-05-05 10:33 38.88234 21.16538 32152 ft 387 kts 306°
2026-05-05 10:33 38.91235 21.10795 32154 ft 387 kts 306°
2026-05-05 10:34 38.94226 21.05057 32155 ft 387 kts 306°
2026-05-05 10:34 38.97196 20.99350 32157 ft 387 kts 306°
2026-05-05 10:35 39.00186 20.93613 32157 ft 386 kts 306°
2026-05-05 10:35 39.03164 20.87871 32158 ft 386 kts 306°
2026-05-05 10:36 39.06135 20.82121 32160 ft 386 kts 306°
2026-05-05 10:36 39.09100 20.76374 32116 ft 386 kts 306°
2026-05-05 10:37 39.10581 20.73500 31724 ft 384 kts 306°
2026-05-05 10:37 39.12051 20.70644 31237 ft 381 kts 306°
2026-05-05 10:37 39.13509 20.67810 30746 ft 378 kts 306°
2026-05-05 10:37 39.14955 20.65001 30249 ft 375 kts 306°
2026-05-05 10:38 39.16388 20.62216 29783 ft 371 kts 306°
2026-05-05 10:38 39.17808 20.59456 29308 ft 368 kts 306°
2026-05-05 10:38 39.19216 20.56723 28838 ft 364 kts 306°
2026-05-05 10:38 39.20611 20.54010 28365 ft 362 kts 306°
2026-05-05 10:39 39.21992 20.51316 27907 ft 359 kts 306°
2026-05-05 10:39 39.23362 20.48637 27440 ft 356 kts 306°
2026-05-05 10:39 39.24718 20.45980 26987 ft 354 kts 306°
2026-05-05 10:39 39.26068 20.43336 26538 ft 352 kts 306°
2026-05-05 10:40 39.27411 20.40706 26049 ft 351 kts 306°
2026-05-05 10:40 39.28750 20.38078 25579 ft 350 kts 306°
2026-05-05 10:40 39.30082 20.35458 25113 ft 348 kts 306°
2026-05-05 10:40 39.31409 20.32850 24656 ft 346 kts 306°
2026-05-05 10:41 39.32726 20.30258 24209 ft 345 kts 306°
2026-05-05 10:41 39.34038 20.27678 23776 ft 342 kts 306°
2026-05-05 10:41 39.35338 20.25123 23350 ft 339 kts 306°
2026-05-05 10:41 39.36629 20.22587 22920 ft 337 kts 306°
2026-05-05 10:42 39.39184 20.17556 22073 ft 333 kts 305°
2026-05-05 10:42 39.40452 20.15053 21642 ft 332 kts 305°
2026-05-05 10:42 39.41712 20.12561 21204 ft 331 kts 305°
2026-05-05 10:43 39.42850 20.09981 20760 ft 331 kts 296°
2026-05-05 10:43 39.43563 20.07145 20319 ft 333 kts 285°
2026-05-05 10:43 39.43804 20.04159 19833 ft 337 kts 273°
2026-05-05 10:43 39.43559 20.01131 19312 ft 340 kts 264°
2026-05-05 10:44 39.43143 19.98160 18808 ft 340 kts 263°
2026-05-05 10:44 39.42724 19.95150 18300 ft 340 kts 263°
2026-05-05 10:44 39.42309 19.92147 17791 ft 339 kts 263°
2026-05-05 10:44 39.41899 19.89151 17277 ft 338 kts 263°
2026-05-05 10:45 39.41490 19.86160 16770 ft 337 kts 263°
2026-05-05 10:45 39.41082 19.83182 16336 ft 334 kts 263°
2026-05-05 10:45 39.40680 19.80275 16189 ft 323 kts 263°
2026-05-05 10:45 39.40620 19.77443 15911 ft 310 kts 284°
2026-05-05 10:46 39.41420 19.74925 15659 ft 302 kts 307°
2026-05-05 10:46 39.42913 19.73067 15390 ft 298 kts 329°
2026-05-05 10:46 39.44839 19.72122 14919 ft 299 kts 349°
2026-05-05 10:46 39.46891 19.71643 14389 ft 302 kts 350°
2026-05-05 10:47 39.48951 19.71178 13949 ft 301 kts 350°
2026-05-05 10:47 39.51016 19.70713 13478 ft 298 kts 351°
2026-05-05 10:47 39.53044 19.70251 12945 ft 295 kts 350°
2026-05-05 10:47 39.55064 19.69784 12280 ft 295 kts 351°
2026-05-05 10:48 39.57070 19.69317 11717 ft 291 kts 351°
2026-05-05 10:48 39.59058 19.68855 11220 ft 292 kts 351°
2026-05-05 10:48 39.61071 19.68391 10751 ft 294 kts 351°
2026-05-05 10:48 39.63091 19.67922 10304 ft 294 kts 350°
2026-05-05 10:49 39.65085 19.67457 9807 ft 290 kts 350°
2026-05-05 10:49 39.67071 19.66995 9146 ft 290 kts 350°
2026-05-05 10:49 39.69067 19.66806 8603 ft 286 kts
2026-05-05 10:49 39.71016 19.67257 8085 ft 284 kts 18°
2026-05-05 10:50 39.72809 19.68299 7582 ft 284 kts 29°
2026-05-05 10:50 39.74551 19.69559 7138 ft 286 kts 28°
2026-05-05 10:50 39.76286 19.70800 6702 ft 287 kts 28°
2026-05-05 10:50 39.78014 19.72025 6256 ft 281 kts 28°
2026-05-05 10:51 39.79728 19.73246 5667 ft 280 kts 28°
2026-05-05 10:51 39.81425 19.74456 5095 ft 277 kts 28°
2026-05-05 10:51 39.83084 19.75717 4510 ft 275 kts 37°
2026-05-05 10:51 39.84293 19.77611 3931 ft 273 kts 65°
2026-05-05 10:52 39.84702 19.79913 3815 ft 252 kts 90°
2026-05-05 10:52 39.84405 19.82044 3753 ft 230 kts 113°
2026-05-05 10:52 39.83690 19.83804 3674 ft 213 kts 120°
2026-05-05 10:52 39.82991 19.85440 3601 ft 199 kts 120°
2026-05-05 10:53 39.82346 19.86960 3469 ft 183 kts 120°
2026-05-05 10:53 39.81754 19.88356 3380 ft 173 kts 120°
2026-05-05 10:53 39.81061 19.89622 3310 ft 172 kts 135°
2026-05-05 10:53 39.80122 19.90562 3241 ft 170 kts 152°
2026-05-05 10:54 39.79023 19.91103 3241 ft 170 kts 168°
2026-05-05 10:54 39.77851 19.91285 3245 ft 170 kts 175°
2026-05-05 10:54 39.76679 19.91434 3247 ft 169 kts 175°
2026-05-05 10:54 39.75508 19.91587 3246 ft 169 kts 175°
2026-05-05 10:55 39.74329 19.91604 3165 ft 170 kts 184°
2026-05-05 10:55 39.73155 19.91505 2913 ft 168 kts 185°
2026-05-05 10:55 39.71990 19.91408 2674 ft 167 kts 185°
2026-05-05 10:55 39.70837 19.91313 2423 ft 166 kts 184°
2026-05-05 10:56 39.69695 19.91220 2166 ft 162 kts 184°
2026-05-05 10:56 39.68631 19.91131 1908 ft 145 kts 183°
2026-05-05 10:56 39.67662 19.91049 1691 ft 136 kts 183°
2026-05-05 10:56 39.66735 19.90972 1472 ft 132 kts 182°
2026-05-05 10:57 39.65827 19.90898 1282 ft 130 kts 181°
2026-05-05 10:57 39.64931 19.90827 1083 ft 129 kts 181°
2026-05-05 10:57 39.64038 19.90756 827 ft 128 kts 181°
2026-05-05 10:57 39.63149 19.90692 583 ft 128 kts 181°
2026-05-05 10:58 39.62265 19.90713 371 ft 127 kts 172°
2026-05-05 10:58 39.61390 19.90900 174 ft 127 kts 166°
2026-05-05 10:58 39.60532 19.91134 25 ft 122 kts 169°
2026-05-05 10:58 39.59878 19.91298 23 ft 57 kts 169°
2026-05-05 10:59 39.59694 19.91348 20 ft 8 kts 150°
2026-05-05 10:59 39.59654 19.91356 19 ft 2 kts 272°
2026-05-05 10:59 39.59681 19.91342 19 ft 8 kts 344°
2026-05-05 10:59 39.59770 19.91320 21 ft 18 kts 349°
2026-05-05 11:00 39.59914 19.91283 24 ft 23 kts 347°
2026-05-05 11:00 39.60084 19.91240 21 ft 26 kts 349°
2026-05-05 11:00 39.60224 19.91205 24 ft 19 kts 350°
2026-05-05 11:00 39.60361 19.91169 21 ft 20 kts 348°
2026-05-05 11:01 39.60491 19.91151 19 ft 19 kts
2026-05-05 11:01 39.60590 19.91211 19 ft 11 kts 38°
2026-05-05 11:01 39.60622 19.91231 19 ft 0 kts
2026-05-05 11:01 39.60626 19.91231 19 ft 2 kts
2026-05-05 11:02 39.60643 19.91236 21 ft 3 kts 23°
2026-05-05 11:02 39.60654 19.91268 19 ft 5 kts 77°
2026-05-05 11:02 39.60662 19.91322 19 ft 3 kts 80°
2026-05-05 11:02 39.60663 19.91334 19 ft 2 kts 80°
2026-05-05 11:03 39.60667 19.91356 19 ft 2 kts 79°
2026-05-05 11:03 39.60667 19.91358 19 ft 0 kts 78°